Year,Month,Day,Hour,Minute,Value (Times are PST for windspeed in km/hr)
2007,06,13,00,00,2.70
2007,06,13,00,01,3.40
2007,06,13,00,02,2.50
2007,06,13,00,03,3.20
2007,06,13,00,04,2.70
2007,06,13,00,05,2.20
2007,06,13,00,06,1.40
2007,06,13,00,07,2.10
2007,06,13,00,08,1.90
2007,06,13,00,09,2.70
2007,06,13,00,10,3.10
2007,06,13,00,11,2.40
2007,06,13,00,12,3.00
2007,06,13,00,13,2.60
2007,06,13,00,14,2.90
2007,06,13,00,15,2.60
2007,06,13,00,16,3.40
2007,06,13,00,17,2.20
2007,06,13,00,18,2.80
2007,06,13,00,19,2.00
2007,06,13,00,20,1.40
2007,06,13,00,21,1.20
2007,06,13,00,22,2.90
2007,06,13,00,23,3.00
2007,06,13,00,24,3.70
2007,06,13,00,25,4.10
2007,06,13,00,26,4.10
2007,06,13,00,27,3.20
2007,06,13,00,28,3.20
2007,06,13,00,29,3.50
2007,06,13,00,30,3.40
2007,06,13,00,31,2.40
2007,06,13,00,32,0.30
2007,06,13,00,33,0.40
2007,06,13,00,34,2.30
2007,06,13,00,35,2.90
2007,06,13,00,36,1.30
2007,06,13,00,37,0.60
2007,06,13,00,38,2.20
2007,06,13,00,39,0.50
2007,06,13,00,40,0.50
2007,06,13,00,41,1.70
2007,06,13,00,42,1.50
2007,06,13,00,43,3.50
2007,06,13,00,44,5.50
2007,06,13,00,45,4.30
2007,06,13,00,46,2.70
2007,06,13,00,47,1.10
2007,06,13,00,48,2.00
2007,06,13,00,49,2.20
2007,06,13,00,50,4.10
2007,06,13,00,51,4.20
2007,06,13,00,52,4.70
2007,06,13,00,53,5.00
2007,06,13,00,54,3.10
2007,06,13,00,55,1.10
2007,06,13,00,56,0.80
2007,06,13,00,57,2.10
2007,06,13,00,58,0.00
2007,06,13,00,59,0.00
2007,06,13,01,00,0.10
2007,06,13,01,01,2.90
2007,06,13,01,02,3.10
2007,06,13,01,03,2.80
2007,06,13,01,04,2.60
2007,06,13,01,05,3.20
2007,06,13,01,06,2.70
2007,06,13,01,07,2.00
2007,06,13,01,08,1.90
2007,06,13,01,09,0.20
2007,06,13,01,10,0.90
2007,06,13,01,11,2.60
2007,06,13,01,12,2.50
2007,06,13,01,13,2.50
2007,06,13,01,14,2.60
2007,06,13,01,15,3.00
2007,06,13,01,16,2.20
2007,06,13,01,17,2.40
2007,06,13,01,18,2.70
2007,06,13,01,19,1.00
2007,06,13,01,20,0.60
2007,06,13,01,21,1.20
2007,06,13,01,22,2.40
2007,06,13,01,23,3.30
2007,06,13,01,24,2.10
2007,06,13,01,25,1.40
2007,06,13,01,26,2.10
2007,06,13,01,27,1.80
2007,06,13,01,28,2.00
2007,06,13,01,29,1.90
2007,06,13,01,30,0.70
2007,06,13,01,31,0.50
2007,06,13,01,32,3.60
2007,06,13,01,33,1.00
2007,06,13,01,34,1.80
2007,06,13,01,35,0.80
2007,06,13,01,36,0.00
2007,06,13,01,37,0.20
2007,06,13,01,38,0.10
2007,06,13,01,39,1.80
2007,06,13,01,40,1.10
2007,06,13,01,41,1.50
2007,06,13,01,42,1.90
2007,06,13,01,43,1.50
2007,06,13,01,44,0.00
2007,06,13,01,45,0.00
2007,06,13,01,46,0.00
2007,06,13,01,47,0.00
2007,06,13,01,48,0.00
2007,06,13,01,49,0.00
2007,06,13,01,50,0.00
2007,06,13,01,51,0.00
2007,06,13,01,52,0.00
2007,06,13,01,53,0.00
2007,06,13,01,54,0.20
2007,06,13,01,55,1.00
2007,06,13,01,56,0.00
2007,06,13,01,57,0.00
2007,06,13,01,58,0.00
2007,06,13,01,59,0.00
2007,06,13,02,00,0.00
2007,06,13,02,01,0.00
2007,06,13,02,02,0.00
2007,06,13,02,03,0.00
2007,06,13,02,04,0.00
2007,06,13,02,05,0.00
2007,06,13,02,06,0.00
2007,06,13,02,07,0.00
2007,06,13,02,08,0.00
2007,06,13,02,09,0.00
2007,06,13,02,10,0.00
2007,06,13,02,11,0.00
2007,06,13,02,12,0.00
2007,06,13,02,13,0.00
2007,06,13,02,14,0.00
2007,06,13,02,15,0.00
2007,06,13,02,16,0.00
2007,06,13,02,17,0.00
2007,06,13,02,18,0.00
2007,06,13,02,19,0.00
2007,06,13,02,20,0.00
2007,06,13,02,21,0.00
2007,06,13,02,22,0.00
2007,06,13,02,23,0.00
2007,06,13,02,24,0.00
2007,06,13,02,25,0.00
2007,06,13,02,26,0.00
2007,06,13,02,27,0.00
2007,06,13,02,28,0.00
2007,06,13,02,29,0.00
2007,06,13,02,30,0.00
2007,06,13,02,31,0.00
2007,06,13,02,32,0.00
2007,06,13,02,33,0.00
2007,06,13,02,34,0.00
2007,06,13,02,35,0.00
2007,06,13,02,36,0.00
2007,06,13,02,37,0.00
2007,06,13,02,38,0.00
2007,06,13,02,39,0.00
2007,06,13,02,40,0.00
2007,06,13,02,41,0.00
2007,06,13,02,42,0.00
2007,06,13,02,43,0.00
2007,06,13,02,44,0.00
2007,06,13,02,45,0.00
2007,06,13,02,46,0.00
2007,06,13,02,47,0.00
2007,06,13,02,48,0.10
2007,06,13,02,49,0.10
2007,06,13,02,50,0.00
2007,06,13,02,51,0.00
2007,06,13,02,52,0.00
2007,06,13,02,53,0.00
2007,06,13,02,54,0.00
2007,06,13,02,55,0.00
2007,06,13,02,56,0.00
2007,06,13,02,57,0.00
2007,06,13,02,58,0.00
2007,06,13,02,59,1.40
2007,06,13,03,00,0.50
2007,06,13,03,01,0.20
2007,06,13,03,02,3.40
2007,06,13,03,03,3.80
2007,06,13,03,04,0.60
2007,06,13,03,05,0.00
2007,06,13,03,06,0.10
2007,06,13,03,07,0.00
2007,06,13,03,08,0.00
2007,06,13,03,09,0.20
2007,06,13,03,10,0.00
2007,06,13,03,11,0.00
2007,06,13,03,12,0.00
2007,06,13,03,13,0.00
2007,06,13,03,14,0.00
2007,06,13,03,15,0.00
2007,06,13,03,16,0.00
2007,06,13,03,17,0.00
2007,06,13,03,18,0.00
2007,06,13,03,19,0.10
2007,06,13,03,20,0.60
2007,06,13,03,21,0.00
2007,06,13,03,22,0.10
2007,06,13,03,23,1.40
2007,06,13,03,24,1.10
2007,06,13,03,25,0.10
2007,06,13,03,26,0.00
2007,06,13,03,27,0.00
2007,06,13,03,28,0.40
2007,06,13,03,29,1.40
2007,06,13,03,30,0.60
2007,06,13,03,31,0.70
2007,06,13,03,32,0.50
2007,06,13,03,33,0.30
2007,06,13,03,34,0.10
2007,06,13,03,35,0.10
2007,06,13,03,36,0.00
2007,06,13,03,37,0.00
2007,06,13,03,38,0.00
2007,06,13,03,39,0.20
2007,06,13,03,40,0.30
2007,06,13,03,41,0.10
2007,06,13,03,42,1.30
2007,06,13,03,43,2.70
2007,06,13,03,44,1.30
2007,06,13,03,45,0.00
2007,06,13,03,46,0.00
2007,06,13,03,47,0.40
2007,06,13,03,48,0.70
2007,06,13,03,49,0.00
2007,06,13,03,50,0.90
2007,06,13,03,51,1.60
2007,06,13,03,52,0.40
2007,06,13,03,53,0.00
2007,06,13,03,54,1.10
2007,06,13,03,55,0.00
2007,06,13,03,56,0.00
2007,06,13,03,57,0.00
2007,06,13,03,58,0.00
2007,06,13,03,59,0.00
2007,06,13,04,00,0.00
2007,06,13,04,01,0.00
2007,06,13,04,02,0.00
2007,06,13,04,03,0.00
2007,06,13,04,04,0.00
2007,06,13,04,05,0.00
2007,06,13,04,06,0.00
2007,06,13,04,07,0.00
2007,06,13,04,08,0.00
2007,06,13,04,09,0.00
2007,06,13,04,10,0.00
2007,06,13,04,11,1.20
2007,06,13,04,12,0.30
2007,06,13,04,13,0.00
2007,06,13,04,14,0.00
2007,06,13,04,15,0.00
2007,06,13,04,16,0.20
2007,06,13,04,17,1.50
2007,06,13,04,18,2.00
2007,06,13,04,19,0.30
2007,06,13,04,20,0.00
2007,06,13,04,21,0.00
2007,06,13,04,22,0.00
2007,06,13,04,23,0.00
2007,06,13,04,24,0.00
2007,06,13,04,25,0.10
2007,06,13,04,26,0.20
2007,06,13,04,27,0.00
2007,06,13,04,28,0.00
2007,06,13,04,29,0.00
2007,06,13,04,30,0.00
2007,06,13,04,31,0.00
2007,06,13,04,32,0.00
2007,06,13,04,33,0.00
2007,06,13,04,34,0.00
2007,06,13,04,35,0.00
2007,06,13,04,36,0.00
2007,06,13,04,37,0.00
2007,06,13,04,38,0.00
2007,06,13,04,39,0.00
2007,06,13,04,40,0.00
2007,06,13,04,41,0.10
2007,06,13,04,42,0.00
2007,06,13,04,43,0.00
2007,06,13,04,44,0.30
2007,06,13,04,45,1.50
2007,06,13,04,46,0.00
2007,06,13,04,47,0.00
2007,06,13,04,48,0.00
2007,06,13,04,49,0.00
2007,06,13,04,50,0.00
2007,06,13,04,51,0.00
2007,06,13,04,52,0.20
2007,06,13,04,53,1.30
2007,06,13,04,54,0.00
2007,06,13,04,55,0.00
2007,06,13,04,56,0.00
2007,06,13,04,57,1.40
2007,06,13,04,58,0.20
2007,06,13,04,59,0.30
2007,06,13,05,00,0.00
2007,06,13,05,01,0.00
2007,06,13,05,02,0.00
2007,06,13,05,03,0.00
2007,06,13,05,04,0.50
2007,06,13,05,05,1.30
2007,06,13,05,06,0.00
2007,06,13,05,07,0.00
2007,06,13,05,08,1.60
2007,06,13,05,09,0.80
2007,06,13,05,10,0.00
2007,06,13,05,11,0.90
2007,06,13,05,12,0.10
2007,06,13,05,13,0.00
2007,06,13,05,14,1.30
2007,06,13,05,15,2.40
2007,06,13,05,16,0.80
2007,06,13,05,17,0.00
2007,06,13,05,18,0.00
2007,06,13,05,19,0.50
2007,06,13,05,20,0.20
2007,06,13,05,21,0.10
2007,06,13,05,22,1.40
2007,06,13,05,23,0.00
2007,06,13,05,24,2.40
2007,06,13,05,25,2.70
2007,06,13,05,26,0.10
2007,06,13,05,27,0.00
2007,06,13,05,28,0.00
2007,06,13,05,29,0.00
2007,06,13,05,30,0.20
2007,06,13,05,31,0.20
2007,06,13,05,32,0.20
2007,06,13,05,33,2.20
2007,06,13,05,34,1.00
2007,06,13,05,35,0.60
2007,06,13,05,36,1.60
2007,06,13,05,37,0.60
2007,06,13,05,38,0.00
2007,06,13,05,39,0.20
2007,06,13,05,40,2.00
2007,06,13,05,41,0.90
2007,06,13,05,42,0.00
2007,06,13,05,43,0.00
2007,06,13,05,44,1.90
2007,06,13,05,45,3.80
2007,06,13,05,46,4.30
2007,06,13,05,47,7.20
2007,06,13,05,48,8.60
2007,06,13,05,49,7.70
2007,06,13,05,50,2.70
2007,06,13,05,51,2.60
2007,06,13,05,52,10.60
2007,06,13,05,53,6.70
2007,06,13,05,54,7.50
2007,06,13,05,55,6.60
2007,06,13,05,56,5.90
2007,06,13,05,57,7.60
2007,06,13,05,58,10.40
2007,06,13,05,59,10.10
2007,06,13,06,00,12.80
2007,06,13,06,01,4.80
2007,06,13,06,02,5.30
2007,06,13,06,03,7.90
2007,06,13,06,04,6.00
2007,06,13,06,05,6.60
2007,06,13,06,06,7.40
2007,06,13,06,07,6.50
2007,06,13,06,08,6.00
2007,06,13,06,09,12.60
2007,06,13,06,10,7.70
2007,06,13,06,11,9.80
2007,06,13,06,12,8.10
2007,06,13,06,13,6.60
2007,06,13,06,14,12.40
2007,06,13,06,15,13.80
2007,06,13,06,16,17.10
2007,06,13,06,17,13.40
2007,06,13,06,18,17.70
2007,06,13,06,19,7.40
2007,06,13,06,20,7.40
2007,06,13,06,21,5.10
2007,06,13,06,22,8.10
2007,06,13,06,23,19.00
2007,06,13,06,24,13.00
2007,06,13,06,25,9.90
2007,06,13,06,26,12.10
2007,06,13,06,27,8.90
2007,06,13,06,28,9.30
2007,06,13,06,29,17.00
2007,06,13,06,30,11.40
2007,06,13,06,31,11.00
2007,06,13,06,32,14.00
2007,06,13,06,33,9.60
2007,06,13,06,34,12.50
2007,06,13,06,35,12.10
2007,06,13,06,36,17.00
2007,06,13,06,37,11.80
2007,06,13,06,38,11.10
2007,06,13,06,39,13.50
2007,06,13,06,40,15.20
2007,06,13,06,41,9.10
2007,06,13,06,42,9.10
2007,06,13,06,43,17.00
2007,06,13,06,44,8.10
2007,06,13,06,45,17.50
2007,06,13,06,46,16.80
2007,06,13,06,47,9.70
2007,06,13,06,48,12.60
2007,06,13,06,49,16.30
2007,06,13,06,50,4.80
2007,06,13,06,51,4.90
2007,06,13,06,52,9.80
2007,06,13,06,53,11.30
2007,06,13,06,54,9.70
2007,06,13,06,55,16.10
2007,06,13,06,56,18.00
2007,06,13,06,57,16.30
2007,06,13,06,58,14.30
2007,06,13,06,59,16.50
2007,06,13,07,00,9.40
2007,06,13,07,01,11.30
2007,06,13,07,02,13.00
2007,06,13,07,03,14.60
2007,06,13,07,04,16.00
2007,06,13,07,05,13.00
2007,06,13,07,06,11.00
2007,06,13,07,07,8.90
2007,06,13,07,08,13.60
2007,06,13,07,09,11.90
2007,06,13,07,10,17.00
2007,06,13,07,11,11.60
2007,06,13,07,12,8.60
2007,06,13,07,13,22.10
2007,06,13,07,14,18.00
2007,06,13,07,15,12.60
2007,06,13,07,16,10.10
2007,06,13,07,17,14.20
2007,06,13,07,18,14.10
2007,06,13,07,19,14.20
2007,06,13,07,20,17.20
2007,06,13,07,21,14.20
2007,06,13,07,22,13.90
2007,06,13,07,23,9.50
2007,06,13,07,24,8.60
2007,06,13,07,25,12.20
2007,06,13,07,26,11.70
2007,06,13,07,27,15.70
2007,06,13,07,28,18.20
2007,06,13,07,29,17.10
2007,06,13,07,30,12.40
2007,06,13,07,31,6.80
2007,06,13,07,32,5.60
2007,06,13,07,33,16.20
2007,06,13,07,34,14.90
2007,06,13,07,35,10.80
2007,06,13,07,36,16.00
2007,06,13,07,37,8.40
2007,06,13,07,38,12.60
2007,06,13,07,39,20.00
2007,06,13,07,40,16.80
2007,06,13,07,41,14.00
2007,06,13,07,42,10.50
2007,06,13,07,43,10.90
2007,06,13,07,44,8.90
2007,06,13,07,45,12.70
2007,06,13,07,46,12.70
2007,06,13,07,47,16.90
2007,06,13,07,48,19.20
2007,06,13,07,49,18.00
2007,06,13,07,50,15.00
2007,06,13,07,51,19.30
2007,06,13,07,52,13.90
2007,06,13,07,53,18.70
2007,06,13,07,54,17.30
2007,06,13,07,55,20.40
2007,06,13,07,56,18.90
2007,06,13,07,57,14.10
2007,06,13,07,58,10.30
2007,06,13,07,59,14.00
2007,06,13,08,00,17.50
2007,06,13,08,01,12.80
2007,06,13,08,02,12.60
2007,06,13,08,03,12.20
2007,06,13,08,04,14.30
2007,06,13,08,05,9.60
2007,06,13,08,06,16.30
2007,06,13,08,07,15.70
2007,06,13,08,08,21.20
2007,06,13,08,09,25.10
2007,06,13,08,10,18.70
2007,06,13,08,11,15.90
2007,06,13,08,12,14.90
2007,06,13,08,13,21.20
2007,06,13,08,14,16.10
2007,06,13,08,15,20.80
2007,06,13,08,16,18.00
2007,06,13,08,17,22.10
2007,06,13,08,18,12.00
2007,06,13,08,19,19.50
2007,06,13,08,20,15.80
2007,06,13,08,21,15.70
2007,06,13,08,22,15.50
2007,06,13,08,23,10.00
2007,06,13,08,24,21.40
2007,06,13,08,25,21.40
2007,06,13,08,26,20.90
2007,06,13,08,27,24.10
2007,06,13,08,28,23.50
2007,06,13,08,29,27.80
2007,06,13,08,30,19.60
2007,06,13,08,31,31.20
2007,06,13,08,32,24.40
2007,06,13,08,33,22.70
2007,06,13,08,34,15.70
2007,06,13,08,35,17.40
2007,06,13,08,36,23.70
2007,06,13,08,37,26.20
2007,06,13,08,38,29.90
2007,06,13,08,39,23.40
2007,06,13,08,40,20.10
2007,06,13,08,41,22.30
2007,06,13,08,42,23.20
2007,06,13,08,43,29.00
2007,06,13,08,44,18.00
2007,06,13,08,45,17.00
2007,06,13,08,46,15.30
2007,06,13,08,47,16.40
2007,06,13,08,48,22.50
2007,06,13,08,49,19.10
2007,06,13,08,50,13.10
2007,06,13,08,51,12.30
2007,06,13,08,52,15.20
2007,06,13,08,53,13.80
2007,06,13,08,54,14.10
2007,06,13,08,55,13.70
2007,06,13,08,56,13.90
2007,06,13,08,57,20.20
2007,06,13,08,58,17.70
2007,06,13,08,59,13.90
2007,06,13,09,00,13.30
2007,06,13,09,01,15.80
2007,06,13,09,02,17.20
2007,06,13,09,03,19.10
2007,06,13,09,04,20.40
2007,06,13,09,05,13.80
2007,06,13,09,06,17.60
2007,06,13,09,07,26.30
2007,06,13,09,08,25.80
2007,06,13,09,09,17.90
2007,06,13,09,10,20.40
2007,06,13,09,11,15.50
2007,06,13,09,12,19.60
2007,06,13,09,13,24.80
2007,06,13,09,14,18.40
2007,06,13,09,15,18.30
2007,06,13,09,16,20.40
2007,06,13,09,17,20.80
2007,06,13,09,18,30.40
2007,06,13,09,19,32.60
2007,06,13,09,20,29.40
2007,06,13,09,21,18.40
2007,06,13,09,22,31.30
2007,06,13,09,23,26.00
2007,06,13,09,24,26.30
2007,06,13,09,25,19.10
2007,06,13,09,26,23.70
2007,06,13,09,27,23.50
2007,06,13,09,28,27.80
2007,06,13,09,29,23.70
2007,06,13,09,30,22.40
2007,06,13,09,31,32.30
2007,06,13,09,32,23.30
2007,06,13,09,33,30.30
2007,06,13,09,34,24.90
2007,06,13,09,35,22.80
2007,06,13,09,36,18.60
2007,06,13,09,37,25.30
2007,06,13,09,38,23.00
2007,06,13,09,39,29.10
2007,06,13,09,40,20.40
2007,06,13,09,41,38.80
2007,06,13,09,42,21.00
2007,06,13,09,43,15.80
2007,06,13,09,44,26.10
2007,06,13,09,45,31.90
2007,06,13,09,46,23.90
2007,06,13,09,47,21.70
2007,06,13,09,48,23.80
2007,06,13,09,49,20.70
2007,06,13,09,50,17.10
2007,06,13,09,51,17.90
2007,06,13,09,52,17.20
2007,06,13,09,53,15.50
2007,06,13,09,54,22.10
2007,06,13,09,55,19.20
2007,06,13,09,56,23.60
2007,06,13,09,57,15.90
2007,06,13,09,58,17.00
2007,06,13,09,59,20.20
2007,06,13,10,00,18.50
2007,06,13,10,01,30.70
2007,06,13,10,02,25.90
2007,06,13,10,03,22.70
2007,06,13,10,04,21.20
2007,06,13,10,05,24.90
2007,06,13,10,06,25.70
2007,06,13,10,07,21.80
2007,06,13,10,08,20.80
2007,06,13,10,09,29.60
2007,06,13,10,10,18.70
2007,06,13,10,11,28.10
2007,06,13,10,12,22.80
2007,06,13,10,13,17.10
2007,06,13,10,14,18.80
2007,06,13,10,15,28.50
2007,06,13,10,16,21.90
2007,06,13,10,17,20.60
2007,06,13,10,18,22.80
2007,06,13,10,19,15.70
2007,06,13,10,20,24.00
2007,06,13,10,21,19.60
2007,06,13,10,22,21.30
2007,06,13,10,23,15.30
2007,06,13,10,24,19.10
2007,06,13,10,25,26.30
2007,06,13,10,26,15.20
2007,06,13,10,27,23.70
2007,06,13,10,28,19.50
2007,06,13,10,29,23.60
2007,06,13,10,30,26.30
2007,06,13,10,31,20.50
2007,06,13,10,32,16.30
2007,06,13,10,33,16.00
2007,06,13,10,34,12.20
2007,06,13,10,35,14.80
2007,06,13,10,36,17.20
2007,06,13,10,37,16.50
2007,06,13,10,38,20.60
2007,06,13,10,39,18.10
2007,06,13,10,40,21.00
2007,06,13,10,41,11.40
2007,06,13,10,42,18.20
2007,06,13,10,43,16.30
2007,06,13,10,44,12.70
2007,06,13,10,45,17.10
2007,06,13,10,46,19.70
2007,06,13,10,47,22.60
2007,06,13,10,48,14.90
2007,06,13,10,49,19.10
2007,06,13,10,50,16.80
2007,06,13,10,51,16.40
2007,06,13,10,52,13.90
2007,06,13,10,53,24.00
2007,06,13,10,54,22.90
2007,06,13,10,55,23.60
2007,06,13,10,56,23.70
2007,06,13,10,57,21.10
2007,06,13,10,58,19.90
2007,06,13,10,59,26.90
2007,06,13,11,00,23.40
2007,06,13,11,01,28.20
2007,06,13,11,02,28.60
2007,06,13,11,03,23.20
2007,06,13,11,04,26.70
2007,06,13,11,05,23.60
2007,06,13,11,06,22.70
2007,06,13,11,07,19.60
2007,06,13,11,08,22.20
2007,06,13,11,09,28.40
2007,06,13,11,10,30.10
2007,06,13,11,11,20.50
2007,06,13,11,12,16.30
2007,06,13,11,13,26.00
2007,06,13,11,14,19.70
2007,06,13,11,15,15.40
2007,06,13,11,16,18.10
2007,06,13,11,17,20.80
2007,06,13,11,18,19.50
2007,06,13,11,19,12.80
2007,06,13,11,20,14.00
2007,06,13,11,21,18.80
2007,06,13,11,22,18.30
2007,06,13,11,23,15.00
2007,06,13,11,24,13.20
2007,06,13,11,25,14.30
2007,06,13,11,26,21.60
2007,06,13,11,27,27.70
2007,06,13,11,28,20.70
2007,06,13,11,29,17.30
2007,06,13,11,30,27.50
2007,06,13,11,31,14.70
2007,06,13,11,32,17.30
2007,06,13,11,33,16.30
2007,06,13,11,34,13.40
2007,06,13,11,35,29.90
2007,06,13,11,36,14.50
2007,06,13,11,37,19.60
2007,06,13,11,38,28.30
2007,06,13,11,39,24.30
2007,06,13,11,40,22.90
2007,06,13,11,41,17.30
2007,06,13,11,42,18.80
2007,06,13,11,43,22.00
2007,06,13,11,44,19.00
2007,06,13,11,45,20.20
2007,06,13,11,46,20.40
2007,06,13,11,47,19.40
2007,06,13,11,48,19.80
2007,06,13,11,49,21.40
2007,06,13,11,50,32.20
2007,06,13,11,51,24.20
2007,06,13,11,52,28.00
2007,06,13,11,53,24.30
2007,06,13,11,54,23.50
2007,06,13,11,55,31.40
2007,06,13,11,56,26.30
2007,06,13,11,57,22.40
2007,06,13,11,58,12.90
2007,06,13,11,59,22.30
2007,06,13,12,00,20.10
2007,06,13,12,01,18.90
2007,06,13,12,02,16.70
2007,06,13,12,03,21.20
2007,06,13,12,04,11.90
2007,06,13,12,05,12.60
2007,06,13,12,06,13.00
2007,06,13,12,07,10.80
2007,06,13,12,08,21.40
2007,06,13,12,09,14.20
2007,06,13,12,10,22.60
2007,06,13,12,11,30.10
2007,06,13,12,12,19.40
2007,06,13,12,13,33.20
2007,06,13,12,14,35.20
2007,06,13,12,15,24.50
2007,06,13,12,16,29.90
2007,06,13,12,17,20.50
2007,06,13,12,18,25.80
2007,06,13,12,19,31.20
2007,06,13,12,20,26.70
2007,06,13,12,21,26.20
2007,06,13,12,22,24.70
2007,06,13,12,23,26.60
2007,06,13,12,24,32.10
2007,06,13,12,25,35.30
2007,06,13,12,26,36.40
2007,06,13,12,27,33.10
2007,06,13,12,28,28.70
2007,06,13,12,29,25.50
2007,06,13,12,30,30.90
2007,06,13,12,31,28.90
2007,06,13,12,32,26.60
2007,06,13,12,33,25.70
2007,06,13,12,34,22.90
2007,06,13,12,35,26.30
2007,06,13,12,36,20.40
2007,06,13,12,37,20.90
2007,06,13,12,38,26.10
2007,06,13,12,39,14.20
2007,06,13,12,40,24.70
2007,06,13,12,41,24.80
2007,06,13,12,42,25.70
2007,06,13,12,43,30.00
2007,06,13,12,44,12.40
2007,06,13,12,45,28.50
2007,06,13,12,46,22.70
2007,06,13,12,47,17.60
2007,06,13,12,48,26.70
2007,06,13,12,49,25.00
2007,06,13,12,50,21.10
2007,06,13,12,51,15.20
2007,06,13,12,52,24.20
2007,06,13,12,53,18.30
2007,06,13,12,54,29.60
2007,06,13,12,55,25.20
2007,06,13,12,56,18.80
2007,06,13,12,57,22.80
2007,06,13,12,58,19.60
2007,06,13,12,59,19.60
2007,06,13,13,00,34.00
2007,06,13,13,01,21.80
2007,06,13,13,02,19.30
2007,06,13,13,03,31.30
2007,06,13,13,04,16.00
2007,06,13,13,05,22.50
2007,06,13,13,06,22.60
2007,06,13,13,07,18.30
2007,06,13,13,08,17.50
2007,06,13,13,09,20.60
2007,06,13,13,10,21.30
2007,06,13,13,11,16.30
2007,06,13,13,12,23.60
2007,06,13,13,13,18.90
2007,06,13,13,14,16.30
2007,06,13,13,15,21.30
2007,06,13,13,16,26.80
2007,06,13,13,17,25.30
2007,06,13,13,18,23.20
2007,06,13,13,19,28.20
2007,06,13,13,20,31.10
2007,06,13,13,21,28.80
2007,06,13,13,22,17.00
2007,06,13,13,23,16.20
2007,06,13,13,24,16.10
2007,06,13,13,25,19.50
2007,06,13,13,26,25.50
2007,06,13,13,27,23.00
2007,06,13,13,28,23.90
2007,06,13,13,29,22.60
2007,06,13,13,30,23.10
2007,06,13,13,31,27.40
2007,06,13,13,32,31.70
2007,06,13,13,33,28.30
2007,06,13,13,34,36.30
2007,06,13,13,35,26.80
2007,06,13,13,36,20.30
2007,06,13,13,37,24.10
2007,06,13,13,38,25.40
2007,06,13,13,39,21.70
2007,06,13,13,40,23.40
2007,06,13,13,41,20.20
2007,06,13,13,42,10.50
2007,06,13,13,43,12.40
2007,06,13,13,44,19.50
2007,06,13,13,45,21.00
2007,06,13,13,46,21.80
2007,06,13,13,47,14.60
2007,06,13,13,48,16.30
2007,06,13,13,49,24.10
2007,06,13,13,50,19.60
2007,06,13,13,51,14.20
2007,06,13,13,52,7.60
2007,06,13,13,53,10.30
2007,06,13,13,54,7.40
2007,06,13,13,55,9.20
2007,06,13,13,56,18.30
2007,06,13,13,57,11.90
2007,06,13,13,58,16.30
2007,06,13,13,59,19.20
2007,06,13,14,00,9.90
2007,06,13,14,01,28.10
2007,06,13,14,02,25.50
2007,06,13,14,03,21.40
2007,06,13,14,04,21.90
2007,06,13,14,05,19.50
2007,06,13,14,06,21.20
2007,06,13,14,07,20.90
2007,06,13,14,08,30.50
2007,06,13,14,09,29.50
2007,06,13,14,10,19.30
2007,06,13,14,11,18.60
2007,06,13,14,12,17.70
2007,06,13,14,13,21.90
2007,06,13,14,14,17.30
2007,06,13,14,15,18.40
2007,06,13,14,16,20.00
2007,06,13,14,17,24.20
2007,06,13,14,18,20.30
2007,06,13,14,19,27.30
2007,06,13,14,20,22.40
2007,06,13,14,21,21.50
2007,06,13,14,22,21.40
2007,06,13,14,23,22.40
2007,06,13,14,24,22.20
2007,06,13,14,25,20.60
2007,06,13,14,26,16.20
2007,06,13,14,27,18.60
2007,06,13,14,28,16.70
2007,06,13,14,29,33.60
2007,06,13,14,30,22.30
2007,06,13,14,31,15.10
2007,06,13,14,32,19.50
2007,06,13,14,33,18.30
2007,06,13,14,34,21.20
2007,06,13,14,35,23.50
2007,06,13,14,36,18.70
2007,06,13,14,37,21.80
2007,06,13,14,38,28.50
2007,06,13,14,39,23.80
2007,06,13,14,40,17.80
2007,06,13,14,41,20.30
2007,06,13,14,42,24.70
2007,06,13,14,43,18.20
2007,06,13,14,44,26.80
2007,06,13,14,45,20.20
2007,06,13,14,46,19.30
2007,06,13,14,47,20.00
2007,06,13,14,48,10.70
2007,06,13,14,49,17.40
2007,06,13,14,50,15.10
2007,06,13,14,51,23.70
2007,06,13,14,52,14.50
2007,06,13,14,53,25.20
2007,06,13,14,54,22.10
2007,06,13,14,55,20.90
2007,06,13,14,56,18.40
2007,06,13,14,57,19.90
2007,06,13,14,58,7.30
2007,06,13,14,59,8.00
2007,06,13,15,00,30.70
2007,06,13,15,01,15.00
2007,06,13,15,02,17.40
2007,06,13,15,03,13.90
2007,06,13,15,04,15.20
2007,06,13,15,05,17.00
2007,06,13,15,06,18.20
2007,06,13,15,07,14.30
2007,06,13,15,08,22.80
2007,06,13,15,09,18.60
2007,06,13,15,10,18.20
2007,06,13,15,11,25.70
2007,06,13,15,12,20.70
2007,06,13,15,13,11.90
2007,06,13,15,14,17.30
2007,06,13,15,15,12.30
2007,06,13,15,16,20.80
2007,06,13,15,17,25.00
2007,06,13,15,18,16.70
2007,06,13,15,19,12.50
2007,06,13,15,20,13.60
2007,06,13,15,21,20.20
2007,06,13,15,22,17.80
2007,06,13,15,23,27.60
2007,06,13,15,24,23.30
2007,06,13,15,25,18.90
2007,06,13,15,26,21.40
2007,06,13,15,27,15.10
2007,06,13,15,28,25.70
2007,06,13,15,29,25.50
2007,06,13,15,30,18.70
2007,06,13,15,31,25.40
2007,06,13,15,32,14.10
2007,06,13,15,33,20.20
2007,06,13,15,34,18.60
2007,06,13,15,35,15.20
2007,06,13,15,36,12.40
2007,06,13,15,37,18.50
2007,06,13,15,38,13.60
2007,06,13,15,39,19.70
2007,06,13,15,40,22.80
2007,06,13,15,41,31.30
2007,06,13,15,42,34.90
2007,06,13,15,43,22.40
2007,06,13,15,44,25.30
2007,06,13,15,45,20.10
2007,06,13,15,46,14.50
2007,06,13,15,47,4.20
2007,06,13,15,48,15.50
2007,06,13,15,49,17.40
2007,06,13,15,50,25.40
2007,06,13,15,51,17.50
2007,06,13,15,52,29.70
2007,06,13,15,53,21.20
2007,06,13,15,54,17.20
2007,06,13,15,55,29.40
2007,06,13,15,56,19.10
2007,06,13,15,57,22.50
2007,06,13,15,58,17.00
2007,06,13,15,59,20.80
2007,06,13,16,00,20.20
2007,06,13,16,01,17.90
2007,06,13,16,02,12.30
2007,06,13,16,03,8.10
2007,06,13,16,04,11.30
2007,06,13,16,05,22.90
2007,06,13,16,06,20.70
2007,06,13,16,07,15.00
2007,06,13,16,08,16.40
2007,06,13,16,09,20.10
2007,06,13,16,10,22.80
2007,06,13,16,11,30.80
2007,06,13,16,12,18.70
2007,06,13,16,13,20.40
2007,06,13,16,14,18.30
2007,06,13,16,15,23.80
2007,06,13,16,16,18.20
2007,06,13,16,17,23.10
2007,06,13,16,18,13.50
2007,06,13,16,19,14.10
2007,06,13,16,20,14.50
2007,06,13,16,21,7.70
2007,06,13,16,22,23.30
2007,06,13,16,23,29.20
2007,06,13,16,24,22.30
2007,06,13,16,25,24.20
2007,06,13,16,26,22.00
2007,06,13,16,27,20.90
2007,06,13,16,28,26.60
2007,06,13,16,29,20.00
2007,06,13,16,30,26.20
2007,06,13,16,31,25.40
2007,06,13,16,32,29.40
2007,06,13,16,33,21.00
2007,06,13,16,34,15.90
2007,06,13,16,35,19.60
2007,06,13,16,36,20.50
2007,06,13,16,37,20.40
2007,06,13,16,38,19.90
2007,06,13,16,39,29.80
2007,06,13,16,40,30.00
2007,06,13,16,41,17.00
2007,06,13,16,42,30.50
2007,06,13,16,43,26.30
2007,06,13,16,44,33.90
2007,06,13,16,45,30.10
2007,06,13,16,46,22.00
2007,06,13,16,47,23.90
2007,06,13,16,48,23.40
2007,06,13,16,49,20.20
2007,06,13,16,50,20.00
2007,06,13,16,51,22.40
2007,06,13,16,52,26.40
2007,06,13,16,53,26.70
2007,06,13,16,54,12.00
2007,06,13,16,55,14.10
2007,06,13,16,56,17.00
2007,06,13,16,57,20.60
2007,06,13,16,58,18.30
2007,06,13,16,59,13.20
2007,06,13,17,00,14.80
2007,06,13,17,01,15.30
2007,06,13,17,02,20.70
2007,06,13,17,03,23.20
2007,06,13,17,04,20.30
2007,06,13,17,05,16.30
2007,06,13,17,06,23.50
2007,06,13,17,07,16.50
2007,06,13,17,08,10.70
2007,06,13,17,09,16.20
2007,06,13,17,10,24.20
2007,06,13,17,11,24.00
2007,06,13,17,12,17.70
2007,06,13,17,13,13.70
2007,06,13,17,14,29.60
2007,06,13,17,15,19.40
2007,06,13,17,16,16.40
2007,06,13,17,17,27.20
2007,06,13,17,18,17.80
2007,06,13,17,19,23.20
2007,06,13,17,20,23.10
2007,06,13,17,21,11.90
2007,06,13,17,22,13.90
2007,06,13,17,23,19.00
2007,06,13,17,24,22.50
2007,06,13,17,25,15.00
2007,06,13,17,26,21.60
2007,06,13,17,27,21.00
2007,06,13,17,28,21.30
2007,06,13,17,29,13.70
2007,06,13,17,30,21.90
2007,06,13,17,31,18.90
2007,06,13,17,32,19.80
2007,06,13,17,33,15.50
2007,06,13,17,34,19.80
2007,06,13,17,35,18.20
2007,06,13,17,36,22.90